,,Stat1,,Stat2,,Stat3,,Stat4,,Wind1,,Wind1,
time,status,PR1M_SUM,status,RH1M_AVG,status,SR1M_AVG,status,TA1M_AVG,status,W1dAve1m,status,W1sAve1m,
2000-02-09, 00:00:00,VALID,0,VALID,95.6374,VALID,0,VALID,18.7557,VALID,120,VALID,0.871795,
2000-02-09, 00:01:00,VALID,0,VALID,96.0964,VALID,0,VALID,18.7433,VALID,118,VALID,0.813281,
2000-02-09, 00:02:00,VALID,0,VALID,96.118,VALID,0,VALID,18.7431,VALID,117,VALID,0.684005,
2000-02-09, 00:03:00,VALID,0,VALID,95.6781,VALID,0,VALID,18.7172,VALID,121,VALID,0.516026,
2000-02-09, 00:04:00,VALID,0,VALID,95.9629,VALID,0,VALID,18.7105,VALID,146,VALID,0.559755,
2000-02-09, 00:05:00,VALID,0,VALID,96.0011,VALID,0,VALID,18.7036,VALID,128,VALID,0.460515,
2000-02-09, 00:06:00,VALID,0,VALID,95.4301,VALID,-0.0169808,VALID,18.6683,VALID,123,VALID,0.823742,
2000-02-09, 00:07:01,VALID,0,VALID,95.7671,VALID,0,VALID,18.6593,VALID,116,VALID,0.647461,
2000-02-09, 00:08:00,VALID,0,VALID,95.9922,VALID,-0.0169808,VALID,18.6362,VALID,110,VALID,0.505551,
2000-02-09, 00:09:00,VALID,0,VALID,96.1168,VALID,-0.0169808,VALID,18.6201,VALID,115,VALID,0.46254,
2000-02-09, 00:10:00,VALID,0,VALID,96.0926,VALID,-0.0339617,VALID,18.6109,VALID,106,VALID,0.498355,
2000-02-09, 00:11:00,VALID,0,VALID,95.57,VALID,-0.0339617,VALID,18.5721,VALID,109,VALID,0.82278,
2000-02-09, 00:12:00,VALID,0,VALID,95.6437,VALID,-0.0339617,VALID,18.511,VALID,109,VALID,0.95662,
2000-02-09, 00:13:00,VALID,0,VALID,96.3253,VALID,-0.0339617,VALID,18.4879,VALID,108,VALID,1.17448,
2000-02-09, 00:14:00,VALID,0,VALID,96.4957,VALID,0,VALID,18.4782,VALID,110,VALID,0.996962,
2000-02-09, 00:15:00,VALID,0,VALID,96.9916,VALID,-0.0169808,VALID,18.5239,VALID,117,VALID,0.965039,
2000-02-09, 00:16:00,VALID,0,VALID,96.8836,VALID,-0.0169808,VALID,18.5495,VALID,135,VALID,0.915039,
2000-02-09, 00:17:00,VALID,0,VALID,97.0997,VALID,-0.0339617,VALID,18.6176,VALID,157,VALID,0.999794,
2000-02-09, 00:18:01,VALID,0,VALID,96.8136,VALID,0,VALID,18.7117,VALID,164,VALID,0.989515,
2000-02-09, 00:19:00,VALID,0,VALID,96.2846,VALID,-0.0169808,VALID,18.7922,VALID,176,VALID,1.00612,
2000-02-09, 00:20:00,VALID,0,VALID,95.9705,VALID,0,VALID,18.8501,VALID,187,VALID,1.02793,
2000-02-09, 00:21:00,VALID,0,VALID,95.5255,VALID,-0.0169808,VALID,18.9115,VALID,190,VALID,1.20813,
2000-02-09, 00:22:00,VALID,0,VALID,94.9723,VALID,-0.0169808,VALID,18.9729,VALID,184,VALID,1.059,
2000-02-09, 00:23:00,VALID,0,VALID,94.7676,VALID,-0.0169808,VALID,19.0019,VALID,183,VALID,0.832422,
2000-02-09, 00:24:00,VALID,0,VALID,94.8147,VALID,-0.0169808,VALID,19.0213,VALID,174,VALID,0.950521,
2000-02-09, 00:25:00,VALID,0,VALID,94.5997,VALID,0,VALID,19.0372,VALID,182,VALID,1.10115,
2000-02-09, 00:26:00,VALID,0,VALID,94.4039,VALID,-0.0169808,VALID,19.0471,VALID,184,VALID,1.2831,
2000-02-09, 00:27:00,VALID,0,VALID,94.3416,VALID,-0.0169808,VALID,19.0603,VALID,182,VALID,1.05633,
2000-02-09, 00:28:01,VALID,0,VALID,94.3314,VALID,0,VALID,19.0573,VALID,179,VALID,0.940972,
2000-02-09, 00:29:01,VALID,0,VALID,94.3251,VALID,-0.0169808,VALID,19.0638,VALID,183,VALID,1.05187,
2000-02-09, 00:30:00,VALID,0,VALID,94.2068,VALID,0,VALID,19.0382,VALID,193,VALID,1.20293,
2000-02-09, 00:31:00,VALID,0,VALID,94.395,VALID,0,VALID,19.0215,VALID,193,VALID,1.42793,
2000-02-09, 00:32:00,VALID,0,VALID,94.2246,VALID,-0.0169808,VALID,19.0412,VALID,193,VALID,1.30983,
2000-02-09, 00:33:00,VALID,0,VALID,94.0046,VALID,0.0169808,VALID,19.0797,VALID,192,VALID,1.37274,
2000-02-09, 00:34:00,VALID,0,VALID,93.7134,VALID,0,VALID,19.1249,VALID,181,VALID,1.14147,
2000-02-09, 00:35:00,VALID,0,VALID,93.5316,VALID,0,VALID,19.1284,VALID,183,VALID,1.14883,
2000-02-09, 00:36:00,VALID,0,VALID,93.4604,VALID,0.0169808,VALID,19.1088,VALID,200,VALID,0.970353,
2000-02-09, 00:37:00,VALID,0,VALID,93.6282,VALID,0,VALID,19.067,VALID,204,VALID,0.907484,
2000-02-09, 00:38:00,VALID,0,VALID,93.7783,VALID,0,VALID,19.0019,VALID,208,VALID,0.985547,
2000-02-09, 00:39:00,VALID,0,VALID,94.011,VALID,-0.0509425,VALID,18.9341,VALID,215,VALID,1.16753,
2000-02-09, 00:40:00,VALID,0,VALID,94.3696,VALID,-0.0169808,VALID,18.8898,VALID,215,VALID,1.48417,
2000-02-09, 00:41:00,VALID,0,VALID,94.6875,VALID,-0.0339617,VALID,18.8439,VALID,214,VALID,1.52796,
2000-02-09, 00:42:00,VALID,0,VALID,94.7765,VALID,-0.0169808,VALID,18.818,VALID,214,VALID,1.55284,
2000-02-09, 00:43:00,VALID,0,VALID,94.7193,VALID,-0.0169808,VALID,18.8143,VALID,215,VALID,1.33832,
2000-02-09, 00:44:00,VALID,0,VALID,94.5909,VALID,0,VALID,18.8176,VALID,217,VALID,1.12457,
2000-02-09, 00:45:00,VALID,0,VALID,94.7854,VALID,0,VALID,18.8183,VALID,217,VALID,1.25664,
2000-02-09, 00:46:00,VALID,0,VALID,94.8642,VALID,-0.0169808,VALID,18.8084,VALID,216,VALID,1.13496,
2000-02-09, 00:47:00,VALID,0,VALID,94.877,VALID,-0.0169808,VALID,18.7989,VALID,215,VALID,1.12623,
2000-02-09, 00:48:00,VALID,0,VALID,95.0346,VALID,-0.0169808,VALID,18.7962,VALID,219,VALID,0.764803,
2000-02-09, 00:49:00,VALID,0,VALID,95.1605,VALID,-0.0169808,VALID,18.7922,VALID,210,VALID,0.72614,
2000-02-09, 00:50:00,VALID,0,VALID,95.1529,VALID,0,VALID,18.7862,VALID,218,VALID,0.393945,
2000-02-09, 00:51:00,VALID,0,VALID,95.0753,VALID,-0.0169808,VALID,18.7765,VALID,231,VALID,0.655048,
2000-02-09, 00:52:00,VALID,0,VALID,95.1097,VALID,0,VALID,18.783,VALID,227,VALID,0.734992,
2000-02-09, 00:53:00,VALID,0,VALID,95.0842,VALID,0.0169808,VALID,18.7599,VALID,220,VALID,0.52168,
2000-02-09, 00:54:00,VALID,0,VALID,95.0702,VALID,-0.0339617,VALID,18.7569,VALID,220,VALID,0.671007,
2000-02-09, 00:55:00,VALID,0,VALID,95.0664,VALID,-0.0169808,VALID,18.7537,VALID,218,VALID,0.930715,
2000-02-09, 00:56:00,VALID,0,VALID,95.0537,VALID,0,VALID,18.7472,VALID,222,VALID,1.03372,
2000-02-09, 00:57:00,VALID,0,VALID,94.9138,VALID,-0.0169808,VALID,18.7315,VALID,219,VALID,0.621711,
2000-02-09, 00:58:00,VALID,0,VALID,94.8846,VALID,0,VALID,18.6951,VALID,240,VALID,0.56901,
2000-02-09, 00:59:00,VALID,0,VALID,95.0245,VALID,-0.0509425,VALID,18.6792,VALID,244,VALID,0.530382,
2000-02-09, 01:00:00,VALID,0,VALID,95.0868,VALID,-0.0169808,VALID,18.6635,VALID,233,VALID,0.156055,
2000-02-09, 01:01:01,VALID,0,VALID,95.0855,VALID,-0.0169808,VALID,18.6436,VALID,226,VALID,0,
2000-02-09, 01:02:00,VALID,0,VALID,95.088,VALID,-0.0509425,VALID,18.6376,VALID,194,VALID,0.384663,
2000-02-09, 01:03:00,VALID,0,VALID,95.2953,VALID,-0.0169808,VALID,18.6309,VALID,211,VALID,0.714638,
2000-02-09, 01:04:00,VALID,0,VALID,95.2178,VALID,-0.0169808,VALID,18.6051,VALID,207,VALID,0.674831,
2000-02-09, 01:05:00,VALID,0,VALID,95.2648,VALID,-0.0169808,VALID,18.5827,VALID,222,VALID,0.454492,
2000-02-09, 01:06:00,VALID,0,VALID,95.2088,VALID,-0.0509425,VALID,18.5638,VALID,204,VALID,0.576122,
2000-02-09, 01:07:00,VALID,0,VALID,95.0448,VALID,-0.0509425,VALID,18.5313,VALID,184,VALID,0.739515,
2000-02-09, 01:08:00,VALID,0,VALID,95.5763,VALID,-0.0169808,VALID,18.5218,VALID,197,VALID,0.503906,
2000-02-09, 01:09:00,VALID,0,VALID,95.2661,VALID,-0.0169808,VALID,18.502,VALID,170,VALID,0.585286,
2000-02-09, 01:10:00,VALID,0,VALID,95.4746,VALID,-0.0339617,VALID,18.4798,VALID,201,VALID,1.09745,
2000-02-09, 01:11:00,VALID,0,VALID,95.7277,VALID,-0.0339617,VALID,18.4411,VALID,212,VALID,1.44778,
2000-02-09, 01:12:01,VALID,0,VALID,95.9095,VALID,-0.0509425,VALID,18.4639,VALID,208,VALID,1.13137,
2000-02-09, 01:13:00,VALID,0,VALID,95.8497,VALID,-0.0509425,VALID,18.4831,VALID,190,VALID,0.74566,
2000-02-09, 01:14:00,VALID,0,VALID,95.8866,VALID,-0.101885,VALID,18.5027,VALID,198,VALID,0.81684,
2000-02-09, 01:15:00,VALID,0,VALID,95.7951,VALID,-0.0509425,VALID,18.5186,VALID,186,VALID,0.836719,
2000-02-09, 01:16:00,VALID,0,VALID,95.7429,VALID,-0.0849042,VALID,18.5186,VALID,206,VALID,0.845312,
2000-02-09, 01:17:00,VALID,0,VALID,95.8472,VALID,-0.0679233,VALID,18.5154,VALID,204,VALID,0.708265,
2000-02-09, 01:18:00,VALID,0,VALID,95.8637,VALID,0.0169808,VALID,18.5008,VALID,204,VALID,0.754112,
2000-02-09, 01:19:00,VALID,0,VALID,95.8319,VALID,0.0339617,VALID,18.4881,VALID,216,VALID,0.828547,
2000-02-09, 01:20:00,VALID,0,VALID,95.8981,VALID,0.0169808,VALID,18.4718,VALID,213,VALID,0.828125,
2000-02-09, 01:21:00,VALID,0,VALID,95.8879,VALID,0.0169808,VALID,18.466,VALID,206,VALID,1.01102,
2000-02-09, 01:22:00,VALID,0,VALID,95.9146,VALID,0,VALID,18.4164,VALID,200,VALID,0.722656,
2000-02-09, 01:23:00,VALID,0,VALID,95.9502,VALID,0.0339617,VALID,18.3841,VALID,213,VALID,0.782227,
2000-02-09, 01:24:00,VALID,0,VALID,96.0316,VALID,0.0679233,VALID,18.3525,VALID,214,VALID,0.750434,
2000-02-09, 01:25:00,VALID,0,VALID,96.1397,VALID,0.0339617,VALID,18.317,VALID,221,VALID,0.810855,
2000-02-09, 01:26:00,VALID,0,VALID,96.1244,VALID,0.0679233,VALID,18.2708,VALID,222,VALID,0.72389,
2000-02-09, 01:27:00,VALID,0,VALID,95.9616,VALID,0.0679233,VALID,18.2685,VALID,209,VALID,0.686678,
2000-02-09, 01:28:00,VALID,0,VALID,96.0176,VALID,0.0679233,VALID,18.2328,VALID,215,VALID,0.88737,
2000-02-09, 01:29:00,VALID,0,VALID,96.4016,VALID,0.0339617,VALID,18.2199,VALID,223,VALID,1.25217,
2000-02-09, 01:30:00,VALID,0,VALID,96.3635,VALID,0.0849042,VALID,18.2298,VALID,217,VALID,1.33477,
2000-02-09, 01:31:00,VALID,0,VALID,96.118,VALID,0.0679233,VALID,18.2392,VALID,223,VALID,1.26035,
2000-02-09, 01:32:00,VALID,0,VALID,96.1269,VALID,0.0169808,VALID,18.2819,VALID,230,VALID,1.38261,
2000-02-09, 01:33:01,VALID,0,VALID,96.0023,VALID,0.0339617,VALID,18.3232,VALID,230,VALID,0.836554,
2000-02-09, 01:34:00,VALID,0,VALID,95.7696,VALID,0,VALID,18.3656,VALID,215,VALID,0.953758,
2000-02-09, 01:35:00,VALID,0,VALID,95.261,VALID,0.0339617,VALID,18.3878,VALID,205,VALID,0.954492,
2000-02-09, 01:36:00,VALID,0,VALID,95.3856,VALID,0.0509425,VALID,18.4113,VALID,187,VALID,1.2474,
2000-02-09, 01:37:00,VALID,0,VALID,95.6488,VALID,0.0509425,VALID,18.4201,VALID,191,VALID,1.27734,
2000-02-09, 01:38:00,VALID,0,VALID,95.4416,VALID,0.0339617,VALID,18.4302,VALID,199,VALID,1.05625,
2000-02-09, 01:39:00,VALID,0,VALID,95.4403,VALID,0.0509425,VALID,18.4496,VALID,203,VALID,1.16884,
2000-02-09, 01:40:00,VALID,0,VALID,95.5217,VALID,0.0339617,VALID,18.466,VALID,206,VALID,1.42866,
2000-02-09, 01:41:00,VALID,0,VALID,95.1821,VALID,0,VALID,18.5077,VALID,212,VALID,1.17989,
2000-02-09, 01:42:00,VALID,0,VALID,94.8108,VALID,0.0169808,VALID,18.5532,VALID,200,VALID,0.896998,
2000-02-09, 01:43:00,VALID,0,VALID,94.4993,VALID,0.0169808,VALID,18.5726,VALID,212,VALID,1.10265,
2000-02-09, 01:44:00,VALID,0,VALID,94.5209,VALID,0.0679233,VALID,18.5659,VALID,206,VALID,1.25998,
2000-02-09, 01:45:01,VALID,0,VALID,94.409,VALID,0.0169808,VALID,18.5525,VALID,211,VALID,1.06211,
2000-02-09, 01:46:00,VALID,0,VALID,94.5489,VALID,0.0169808,VALID,18.55,VALID,208,VALID,1.16055,
2000-02-09, 01:47:00,VALID,0,VALID,94.7918,VALID,0.0339617,VALID,18.5497,VALID,217,VALID,1.08532,
2000-02-09, 01:48:00,VALID,0,VALID,94.5934,VALID,-0.0849042,VALID,18.5611,VALID,208,VALID,0.79338,
2000-02-09, 01:49:00,VALID,0,VALID,94.5031,VALID,-0.0339617,VALID,18.5477,VALID,202,VALID,0.684122,
2000-02-09, 01:50:00,VALID,0,VALID,94.5832,VALID,-0.0509425,VALID,18.5447,VALID,183,VALID,0.572656,
2000-02-09, 01:51:00,VALID,0,VALID,94.8668,VALID,-0.101885,VALID,18.5481,VALID,176,VALID,0.568309,
2000-02-09, 01:52:00,VALID,0,VALID,94.8134,VALID,-0.0679233,VALID,18.535,VALID,184,VALID,0.652755,
2000-02-09, 01:53:00,VALID,0,VALID,95.1046,VALID,-0.101885,VALID,18.5218,VALID,208,VALID,0.582422,
2000-02-09, 01:54:00,VALID,0,VALID,94.9634,VALID,-0.0849042,VALID,18.5218,VALID,212,VALID,0.732856,
2000-02-09, 01:55:00,VALID,0,VALID,95.0207,VALID,-0.101885,VALID,18.5449,VALID,206,VALID,0.637336,
2000-02-09, 01:56:01,VALID,0,VALID,94.3276,VALID,-0.0849042,VALID,18.5544,VALID,206,VALID,0.291324,
2000-02-09, 01:57:00,VALID,0,VALID,94.5374,VALID,-0.0849042,VALID,18.5477,VALID,222,VALID,0.365954,
2000-02-09, 01:58:00,VALID,0,VALID,94.451,VALID,-0.0849042,VALID,18.5253,VALID,217,VALID,0.357856,
2000-02-09, 01:59:00,VALID,0,VALID,93.9449,VALID,-0.0679233,VALID,18.4833,VALID,183,VALID,0.491753,
2000-02-09, 02:00:00,VALID,0,VALID,92.6834,VALID,-0.0509425,VALID,18.3638,VALID,153,VALID,0,
2000-02-09, 02:01:00,VALID,0,VALID,93.8152,VALID,-0.0509425,VALID,18.2605,VALID,170,VALID,0,
2000-02-09, 02:02:00,VALID,0,VALID,95.3475,VALID,-0.0849042,VALID,18.1896,VALID,166,VALID,0,
2000-02-09, 02:03:00,VALID,0,VALID,95.0168,VALID,-0.0169808,VALID,18.1114,VALID,165,VALID,0,
2000-02-09, 02:04:00,VALID,0,VALID,95.5662,VALID,-0.0169808,VALID,18.0563,VALID,166,VALID,0,
2000-02-09, 02:05:00,VALID,0,VALID,95.4962,VALID,-0.0169808,VALID,18.0019,VALID,166,VALID,0,
2000-02-09, 02:06:00,VALID,0,VALID,95.659,VALID,0,VALID,17.9433,VALID,195,VALID,0.207532,
2000-02-09, 02:07:00,VALID,0,VALID,97.0425,VALID,0,VALID,17.9855,VALID,216,VALID,0.652549,
2000-02-09, 02:08:00,VALID,0,VALID,96.9611,VALID,0,VALID,18.0046,VALID,211,VALID,0.378516,
2000-02-09, 02:09:00,VALID,0,VALID,97.1391,VALID,0,VALID,18.0272,VALID,206,VALID,0.428819,
2000-02-09, 02:10:00,VALID,0,VALID,97.0578,VALID,-0.0169808,VALID,18.0561,VALID,198,VALID,0.348479,
2000-02-09, 02:11:00,VALID,0,VALID,95.968,VALID,0.0169808,VALID,17.9982,VALID,196,VALID,0.250206,
2000-02-09, 02:12:00,VALID,0,VALID,95.2559,VALID,0,VALID,17.9437,VALID,196,VALID,0.11986,
2000-02-09, 02:13:00,VALID,0,VALID,95.1275,VALID,0,VALID,17.8729,VALID,196,VALID,0.0460069,
2000-02-09, 02:14:00,VALID,0,VALID,95.968,VALID,0,VALID,17.8404,VALID,196,VALID,0,
2000-02-09, 02:15:00,VALID,0,VALID,96.0163,VALID,0,VALID,17.7823,VALID,196,VALID,0,
2000-02-09, 02:16:00,VALID,0,VALID,96.2261,VALID,0,VALID,17.7504,VALID,196,VALID,0,
2000-02-09, 02:17:00,VALID,0,VALID,96.221,VALID,-0.0169808,VALID,17.6983,VALID,196,VALID,0,
2000-02-09, 02:18:01,VALID,0,VALID,96.6216,VALID,0,VALID,17.6727,VALID,194,VALID,0.132401,
2000-02-09, 02:19:00,VALID,0,VALID,95.9311,VALID,-0.0169808,VALID,17.5851,VALID,173,VALID,0.170608,
2000-02-09, 02:20:00,VALID,0,VALID,95.4428,VALID,0.0169808,VALID,17.5082,VALID,169,VALID,0.282031,
2000-02-09, 02:21:00,VALID,0,VALID,95.7048,VALID,0,VALID,17.4079,VALID,157,VALID,0.129207,
2000-02-09, 02:22:00,VALID,0,VALID,96.6178,VALID,0,VALID,17.3657,VALID,156,VALID,0,
2000-02-09, 02:23:00,VALID,0,VALID,97.045,VALID,0,VALID,17.3436,VALID,156,VALID,0,
2000-02-09, 02:24:00,VALID,0,VALID,96.6521,VALID,0,VALID,17.2848,VALID,153,VALID,0.047526,
2000-02-09, 02:25:00,VALID,0,VALID,97.0209,VALID,-0.0169808,VALID,17.2564,VALID,135,VALID,0.81435,
2000-02-09, 02:26:00,VALID,0,VALID,97.7317,VALID,0.0169808,VALID,17.2891,VALID,133,VALID,0.707442,
2000-02-09, 02:27:00,VALID,0,VALID,98.0382,VALID,0,VALID,17.3306,VALID,133,VALID,0.52611,
2000-02-09, 02:28:01,VALID,0,VALID,98.3891,VALID,0,VALID,17.3982,VALID,133,VALID,0.381293,
2000-02-09, 02:29:01,VALID,0,VALID,98.3128,VALID,0,VALID,17.4307,VALID,138,VALID,0.538194,
2000-02-09, 02:30:00,VALID,0,VALID,97.7203,VALID,0,VALID,17.3696,VALID,138,VALID,0.52832,
2000-02-09, 02:31:00,VALID,0,VALID,97.7775,VALID,0.0169808,VALID,17.3599,VALID,141,VALID,0.658398,
2000-02-09, 02:32:00,VALID,0,VALID,98.3141,VALID,0,VALID,17.4439,VALID,155,VALID,0.682977,
2000-02-09, 02:33:00,VALID,0,VALID,98.2671,VALID,0,VALID,17.4531,VALID,157,VALID,0.504317,
2000-02-09, 02:34:00,VALID,0,VALID,98.07,VALID,-0.0339617,VALID,17.4695,VALID,158,VALID,0.414696,
2000-02-09, 02:35:00,VALID,0,VALID,98.1335,VALID,0,VALID,17.4826,VALID,181,VALID,0.733594,
2000-02-09, 02:36:00,VALID,0,VALID,98.2327,VALID,0,VALID,17.5179,VALID,191,VALID,0.789263,
2000-02-09, 02:37:00,VALID,0,VALID,98.5214,VALID,-0.0169808,VALID,17.5763,VALID,187,VALID,0.924753,
2000-02-09, 02:38:00,VALID,0,VALID,98.7325,VALID,-0.0339617,VALID,17.6761,VALID,189,VALID,1.04805,
2000-02-09, 02:39:00,VALID,0,VALID,98.7375,VALID,-0.0169808,VALID,17.7926,VALID,183,VALID,0.990451,
2000-02-09, 02:40:01,VALID,0,VALID,98.4972,VALID,-0.0339617,VALID,17.9026,VALID,189,VALID,0.920025,
2000-02-09, 02:41:00,VALID,0,VALID,97.986,VALID,0,VALID,17.9347,VALID,200,VALID,0.761719,
2000-02-09, 02:42:00,VALID,0,VALID,97.5817,VALID,-0.0169808,VALID,17.9799,VALID,212,VALID,0.918174,
2000-02-09, 02:43:00,VALID,0,VALID,97.2917,VALID,-0.0339617,VALID,18.0095,VALID,217,VALID,0.666016,
2000-02-09, 02:44:00,VALID,0,VALID,97.0044,VALID,-0.0169808,VALID,18.0281,VALID,208,VALID,0.875217,
2000-02-09, 02:45:00,VALID,0,VALID,97.0069,VALID,-0.0339617,VALID,18.0607,VALID,194,VALID,0.794531,
2000-02-09, 02:46:00,VALID,0,VALID,95.3373,VALID,-0.0509425,VALID,18.0025,VALID,186,VALID,0.579102,
2000-02-09, 02:47:00,VALID,0,VALID,95.1923,VALID,0,VALID,17.9442,VALID,179,VALID,0.517064,
2000-02-09, 02:48:00,VALID,0,VALID,95.2559,VALID,-0.0339617,VALID,17.8376,VALID,149,VALID,0.658923,
2000-02-09, 02:49:00,VALID,0,VALID,96.7551,VALID,-0.0509425,VALID,17.8055,VALID,149,VALID,0.486275,
2000-02-09, 02:50:00,VALID,0,VALID,97.4787,VALID,-0.0169808,VALID,17.815,VALID,168,VALID,0.341211,
2000-02-09, 02:51:01,VALID,0,VALID,97.6071,VALID,0,VALID,17.8376,VALID,182,VALID,0.293069,
2000-02-09, 02:52:00,VALID,0,VALID,97.4507,VALID,0.0169808,VALID,17.8281,VALID,177,VALID,0.0503701,
2000-02-09, 02:53:00,VALID,0,VALID,97.3083,VALID,-0.0169808,VALID,17.7859,VALID,186,VALID,0,
2000-02-09, 02:54:00,VALID,0,VALID,97.7381,VALID,-0.0339617,VALID,17.8023,VALID,196,VALID,0.723958,
2000-02-09, 02:55:00,VALID,0,VALID,98.056,VALID,-0.0339617,VALID,17.8438,VALID,182,VALID,0.768092,
2000-02-09, 02:56:00,VALID,0,VALID,97.6529,VALID,0,VALID,17.8473,VALID,181,VALID,0.620683,
2000-02-09, 02:57:00,VALID,0,VALID,97.3706,VALID,-0.0169808,VALID,17.8505,VALID,191,VALID,0.511719,
2000-02-09, 02:58:00,VALID,0,VALID,96.5936,VALID,0.0339617,VALID,17.8053,VALID,168,VALID,0.569878,
2000-02-09, 02:59:00,VALID,0,VALID,95.0308,VALID,0,VALID,17.6792,VALID,159,VALID,0.49783,
2000-02-09, 03:00:00,VALID,0,VALID,96.6598,VALID,0,VALID,17.6406,VALID,164,VALID,0.535156,
2000-02-09, 03:01:01,VALID,0,VALID,97.4812,VALID,0,VALID,17.6503,VALID,171,VALID,0.538867,
2000-02-09, 03:02:01,VALID,0,VALID,97.5969,VALID,-0.0169808,VALID,17.6148,VALID,172,VALID,0.582854,
2000-02-09, 03:03:00,VALID,0,VALID,98.1463,VALID,0,VALID,17.6374,VALID,172,VALID,0.610403,
2000-02-09, 03:04:00,VALID,0,VALID,97.9848,VALID,0,VALID,17.6275,VALID,165,VALID,0.739865,
2000-02-09, 03:05:00,VALID,0,VALID,96.942,VALID,0,VALID,17.5121,VALID,144,VALID,0.870508,
2000-02-09, 03:06:00,VALID,0,VALID,97.0934,VALID,0,VALID,17.4533,VALID,140,VALID,1.03626,
2000-02-09, 03:07:00,VALID,0,VALID,98.384,VALID,-0.0169808,VALID,17.544,VALID,165,VALID,1.09231,
2000-02-09, 03:08:00,VALID,0,VALID,98.688,VALID,-0.0169808,VALID,17.6768,VALID,189,VALID,1.06328,
2000-02-09, 03:09:00,VALID,0,VALID,98.6155,VALID,0,VALID,17.7248,VALID,187,VALID,1.1352,
2000-02-09, 03:10:00,VALID,0,VALID,98.4095,VALID,0,VALID,17.7732,VALID,198,VALID,1.08984,
2000-02-09, 03:11:00,VALID,0,VALID,98.2442,VALID,0,VALID,17.8021,VALID,197,VALID,0.981702,
2000-02-09, 03:12:01,VALID,0,VALID,98.0776,VALID,0.0339617,VALID,17.8411,VALID,207,VALID,1.13035,
2000-02-09, 03:13:01,VALID,0,VALID,97.9517,VALID,-0.0169808,VALID,17.8734,VALID,208,VALID,0.947483,
2000-02-09, 03:14:00,VALID,0,VALID,97.733,VALID,0,VALID,17.9029,VALID,200,VALID,0.932726,
2000-02-09, 03:15:00,VALID,0,VALID,97.4837,VALID,0,VALID,17.9024,VALID,198,VALID,0.952344,
2000-02-09, 03:16:00,VALID,0,VALID,97.3757,VALID,-0.0169808,VALID,17.9123,VALID,198,VALID,0.99707,
2000-02-09, 03:17:00,VALID,0,VALID,97.2129,VALID,-0.0339617,VALID,17.9188,VALID,201,VALID,0.853618,
2000-02-09, 03:18:00,VALID,0,VALID,97.0527,VALID,-0.0339617,VALID,17.9248,VALID,205,VALID,0.707031,
2000-02-09, 03:19:00,VALID,0,VALID,97.0018,VALID,-0.0169808,VALID,17.9246,VALID,198,VALID,0.705236,
2000-02-09, 03:20:00,VALID,0,VALID,96.4423,VALID,0.0169808,VALID,17.8992,VALID,182,VALID,0.658984,
2000-02-09, 03:21:00,VALID,0,VALID,96.3711,VALID,0,VALID,17.8699,VALID,187,VALID,0.569311,
2000-02-09, 03:22:00,VALID,0,VALID,96.6458,VALID,0.0169808,VALID,17.8643,VALID,188,VALID,0.705387,
2000-02-09, 03:23:00,VALID,0,VALID,96.6419,VALID,-0.0339617,VALID,17.8321,VALID,198,VALID,0.529688,
2000-02-09, 03:24:01,VALID,0,VALID,95.9896,VALID,0,VALID,17.7802,VALID,192,VALID,0.52691,
2000-02-09, 03:25:00,VALID,0,VALID,96.1295,VALID,-0.0339617,VALID,17.722,VALID,183,VALID,0.658923,
2000-02-09, 03:26:00,VALID,0,VALID,96.9484,VALID,-0.0169808,VALID,17.7054,VALID,187,VALID,0.884046,
2000-02-09, 03:27:00,VALID,0,VALID,97.2994,VALID,0,VALID,17.7315,VALID,182,VALID,0.921875,
2000-02-09, 03:28:00,VALID,0,VALID,97.6173,VALID,0,VALID,17.7901,VALID,188,VALID,0.995226,
2000-02-09, 03:29:00,VALID,0,VALID,97.5486,VALID,-0.0169808,VALID,17.8512,VALID,190,VALID,1.09397,
2000-02-09, 03:30:00,VALID,0,VALID,97.1926,VALID,0,VALID,17.8962,VALID,187,VALID,1.27031,
2000-02-09, 03:31:00,VALID,0,VALID,96.6496,VALID,0,VALID,17.9414,VALID,192,VALID,1.07285,
2000-02-09, 03:32:00,VALID,0,VALID,96.3419,VALID,0,VALID,17.9541,VALID,192,VALID,1.08491,
2000-02-09, 03:33:01,VALID,0,VALID,96.0863,VALID,0,VALID,17.9926,VALID,192,VALID,1.01192,
2000-02-09, 03:34:00,VALID,0,VALID,95.8561,VALID,0,VALID,18.0053,VALID,194,VALID,1.17842,
2000-02-09, 03:35:01,VALID,0,VALID,95.5585,VALID,-0.0169808,VALID,18.0249,VALID,197,VALID,1.13242,
2000-02-09, 03:36:00,VALID,0,VALID,94.9316,VALID,0,VALID,18.051,VALID,200,VALID,1.03225,
2000-02-09, 03:37:00,VALID,0,VALID,95.083,VALID,0,VALID,18.0669,VALID,207,VALID,0.905633,
2000-02-09, 03:38:00,VALID,0,VALID,95.1147,VALID,0,VALID,18.1027,VALID,208,VALID,0.726563,
2000-02-09, 03:39:00,VALID,0,VALID,94.8388,VALID,-0.0169808,VALID,18.1186,VALID,208,VALID,0.629991,
2000-02-09, 03:40:00,VALID,0,VALID,94.6811,VALID,0,VALID,18.1412,VALID,204,VALID,0.72389,
2000-02-09, 03:41:00,VALID,0,VALID,94.1738,VALID,0,VALID,18.1444,VALID,204,VALID,0.809622,
2000-02-09, 03:42:00,VALID,0,VALID,93.538,VALID,0,VALID,18.1384,VALID,201,VALID,0.679276,
2000-02-09, 03:43:00,VALID,0,VALID,93.7668,VALID,-0.0169808,VALID,18.0803,VALID,201,VALID,0.595269,
2000-02-09, 03:44:00,VALID,0,VALID,94.451,VALID,-0.0339617,VALID,18.0228,VALID,201,VALID,0.709418,
2000-02-09, 03:45:01,VALID,0,VALID,94.8388,VALID,0,VALID,17.9511,VALID,196,VALID,0.817383,
2000-02-09, 03:46:00,VALID,0,VALID,95.3195,VALID,-0.0339617,VALID,17.88,VALID,193,VALID,1.00195,
2000-02-09, 03:47:00,VALID,0,VALID,95.3004,VALID,-0.0679233,VALID,17.8122,VALID,193,VALID,1.01377,
2000-02-09, 03:48:00,VALID,0,VALID,95.5242,VALID,-0.0509425,VALID,17.7543,VALID,199,VALID,0.916118,
2000-02-09, 03:49:00,VALID,0,VALID,96.0456,VALID,-0.0849042,VALID,17.7416,VALID,201,VALID,0.996199,
2000-02-09, 03:50:00,VALID,0,VALID,96.0367,VALID,-0.101885,VALID,17.7352,VALID,200,VALID,0.917969,
2000-02-09, 03:51:00,VALID,0,VALID,96.1448,VALID,-0.0509425,VALID,17.7349,VALID,206,VALID,0.766827,
2000-02-09, 03:52:00,VALID,0,VALID,96.4169,VALID,-0.0849042,VALID,17.7515,VALID,210,VALID,0.804482,
2000-02-09, 03:53:00,VALID,0,VALID,96.5021,VALID,-0.0679233,VALID,17.7483,VALID,208,VALID,0.812695,
2000-02-09, 03:54:00,VALID,0,VALID,96.4817,VALID,-0.101885,VALID,17.7545,VALID,206,VALID,0.860026,
2000-02-09, 03:55:00,VALID,0,VALID,96.7856,VALID,-0.0849042,VALID,17.7677,VALID,208,VALID,0.904811,
2000-02-09, 03:56:01,VALID,0,VALID,96.7717,VALID,-0.101885,VALID,17.7834,VALID,213,VALID,0.906867,
2000-02-09, 03:57:00,VALID,0,VALID,96.7551,VALID,-0.101885,VALID,17.8159,VALID,214,VALID,1.25658,
2000-02-09, 03:58:00,VALID,0,VALID,96.4576,VALID,-0.0679233,VALID,17.842,VALID,212,VALID,1.13802,
2000-02-09, 03:59:00,VALID,0,VALID,96.3024,VALID,-0.0679233,VALID,17.8318,VALID,213,VALID,1.27539,
2000-02-09, 04:00:00,VALID,0,VALID,96.3012,VALID,-0.0849042,VALID,17.8514,VALID,209,VALID,1.03887,
2000-02-09, 04:01:00,VALID,0,VALID,96.2083,VALID,-0.101885,VALID,17.8773,VALID,207,VALID,0.825391,
2000-02-09, 04:02:00,VALID,0,VALID,96.1587,VALID,-0.0679233,VALID,17.8996,VALID,207,VALID,0.743627,
2000-02-09, 04:03:00,VALID,0,VALID,96.1867,VALID,0,VALID,17.9204,VALID,197,VALID,0.971012,
2000-02-09, 04:04:00,VALID,0,VALID,96.0824,VALID,0.0339617,VALID,17.9885,VALID,203,VALID,1.13408,
2000-02-09, 04:05:00,VALID,0,VALID,95.7849,VALID,0.0339617,VALID,18.0402,VALID,198,VALID,1.09805,